Location: Hicks
(37.9226°N, 89.9954°W)
Time: 08:53:26
(UTC+00:00)

OAO 2 Rocket - Pass Details

Date: 14 December 2025
Orbit: 668 x 734 km, 35.0° (Epoch: 24 January)

Event Time Altitude Azimuth Distance (km) Brightness Sun altitude
Exits shadow 12:30:42 - 268° (W) 2,546 5.6 -7.4°
Reaches altitude 10° 12:31:36 10° 267° (W) 2,213 5.3 -7.3°
Maximum altitude 12:36:42 58° 189° (S) 836 3.8 -6.4°
Drops below altitude 10° 12:41:42 10° 111° (ESE) 2,172 7.8 -5.5°
Sets 12:44:07 0° 107° (ESE) 3,078 9.1 -5.0°
